Hourly Weather Arbuzinka

Today, 15 July, Wednesday

Time Temperature Precipitation Wind Pressure Humidity
00:00 +13°C° 0 mm 3 mps 749 mmHg 80%
01:00 +13°C° 0 mm 3 mps 749 mmHg 82%
02:00 +12°C° 0 mm 3 mps 749 mmHg 84%
03:00 +12°C° 0 mm 3 mps 749 mmHg 85%
04:00 +12°C° 0 mm 3 mps 749 mmHg 87%
05:00 +12°C° 0 mm 3 mps 749 mmHg 88%
06:00 +14°C° 0 mm 3 mps 750 mmHg 80%
07:00 +17°C° 0 mm 3 mps 750 mmHg 72%
08:00 +19°C° 0 mm 4 mps 750 mmHg 64%
09:00 +21°C° 0 mm 4 mps 750 mmHg 58%
10:00 +22°C° 0 mm 4 mps 750 mmHg 52%
11:00 +25°C° 0 mm 4 mps 750 mmHg 45%
12:00 +25°C° 0 mm 4 mps 750 mmHg 44%
13:00 +25°C° 0 mm 4 mps 750 mmHg 44%
14:00 +26°C° 0 mm 4 mps 750 mmHg 43%
15:00 +26°C° 0 mm 4 mps 750 mmHg 44%
16:00 +25°C° 0 mm 4 mps 750 mmHg 46%
17:00 +25°C° 0 mm 4 mps 749 mmHg 48%
18:00 +22°C° 0 mm 3 mps 750 mmHg 53%
19:00 +21°C° 0 mm 2 mps 750 mmHg 59%
20:00 +19°C° 0 mm 2 mps 750 mmHg 64%
21:00 +20°C° 0 mm 1 mps 750 mmHg 68%
22:00 +19°C° 0 mm 1 mps 750 mmHg 71%
23:00 +18°C° 0 mm 1 mps 750 mmHg 74%

Tomorrow, 16 July, Thursday

Time Temperature Precipitation Wind Pressure Humidity
00:00 +18°C° 0 mm 1 mps 750 mmHg 76%
01:00 +15°C° 0 mm 0 mps 750 mmHg 77%
02:00 +15°C° 0 mm 0 mps 750 mmHg 78%
03:00 +15°C° 0 mm 0 mps 750 mmHg 78%
04:00 +15°C° 0 mm 0 mps 750 mmHg 78%
05:00 +15°C° 0 mm 0 mps 750 mmHg 78%
06:00 +17°C° 0 mm 0 mps 750 mmHg 71%
07:00 +19°C° 0 mm 0 mps 750 mmHg 64%
08:00 +21°C° 0 mm 0 mps 750 mmHg 57%
09:00 +22°C° 0 mm 0 mps 750 mmHg 52%
10:00 +23°C° 0 mm 0 mps 750 mmHg 47%
11:00 +27°C° 0 mm 1 mps 750 mmHg 43%
12:00 +27°C° 0 mm 1 mps 749 mmHg 40%
13:00 +28°C° 0 mm 1 mps 749 mmHg 38%
14:00 +28°C° 0 mm 1 mps 749 mmHg 35%
15:00 +28°C° 0 mm 1 mps 749 mmHg 36%
16:00 +28°C° 0 mm 1 mps 748 mmHg 36%
17:00 +28°C° 0 mm 1 mps 748 mmHg 37%
18:00 +26°C° 0 mm 2 mps 748 mmHg 43%
19:00 +24°C° 0 mm 2 mps 748 mmHg 48%
20:00 +23°C° 0 mm 2 mps 748 mmHg 54%
21:00 +21°C° 0 mm 2 mps 748 mmHg 57%
22:00 +20°C° 0 mm 2 mps 748 mmHg 60%
23:00 +20°C° 0 mm 1 mps 748 mmHg 62%

Day after tomorrow, 17 July, Friday

Time Temperature Precipitation Wind Pressure Humidity
00:00 +20°C° 0 mm 1 mps 748 mmHg 63%
01:00 +18°C° 0 mm 2 mps 748 mmHg 64%
02:00 +18°C° 0 mm 2 mps 748 mmHg 64%
03:00 +18°C° 0 mm 2 mps 748 mmHg 65%
04:00 +18°C° 0 mm 2 mps 748 mmHg 66%
05:00 +18°C° 0 mm 2 mps 748 mmHg 67%
06:00 +20°C° 0 mm 2 mps 748 mmHg 61%
07:00 +23°C° 0 mm 2 mps 749 mmHg 56%
08:00 +25°C° 0 mm 2 mps 749 mmHg 50%
09:00 +26°C° 0 mm 2 mps 749 mmHg 46%
10:00 +27°C° 0 mm 2 mps 749 mmHg 42%
11:00 +29°C° 0 mm 2 mps 749 mmHg 38%
12:00 +29°C° 0 mm 2 mps 749 mmHg 37%
13:00 +29°C° 0 mm 2 mps 749 mmHg 36%
14:00 +29°C° 0 mm 2 mps 749 mmHg 35%
15:00 +29°C° 0 mm 1 mps 749 mmHg 36%
16:00 +29°C° 0 mm 1 mps 748 mmHg 36%
17:00 +29°C° 0 mm 1 mps 748 mmHg 36%
18:00 +28°C° 0 mm 2 mps 749 mmHg 41%
19:00 +26°C° 0 mm 2 mps 749 mmHg 47%
20:00 +24°C° 0 mm 2 mps 749 mmHg 52%
21:00 +23°C° 0 mm 2 mps 749 mmHg 55%
22:00 +21°C° 0 mm 3 mps 749 mmHg 58%
23:00 +21°C° 0 mm 3 mps 750 mmHg 61%

18 July, Saturday

Time Temperature Precipitation Wind Pressure Humidity
00:00 +20°C° 0 mm 3 mps 750 mmHg 62%
01:00 +20°C° 0 mm 3 mps 750 mmHg 64%
02:00 +19°C° 0 mm 3 mps 750 mmHg 65%
03:00 +19°C° 0 mm 2 mps 750 mmHg 67%
04:00 +19°C° 0 mm 2 mps 750 mmHg 68%
05:00 +19°C° 0 mm 2 mps 750 mmHg 70%
06:00 +21°C° 0 mm 2 mps 750 mmHg 64%
07:00 +24°C° 0 mm 2 mps 751 mmHg 59%
08:00 +26°C° 0 mm 3 mps 751 mmHg 53%
09:00 +27°C° 0 mm 3 mps 751 mmHg 49%
10:00 +28°C° 0 mm 3 mps 751 mmHg 44%
11:00 +29°C° 0 mm 3 mps 751 mmHg 39%
12:00 +30°C° 0 mm 3 mps 751 mmHg 38%
13:00 +30°C° 0 mm 3 mps 751 mmHg 37%
14:00 +30°C° 0 mm 3 mps 750 mmHg 36%
15:00 +30°C° 0 mm 3 mps 750 mmHg 37%
16:00 +30°C° 0 mm 3 mps 750 mmHg 38%
17:00 +30°C° 0 mm 3 mps 750 mmHg 39%
18:00 +28°C° 0 mm 3 mps 750 mmHg 45%
19:00 +27°C° 0 mm 3 mps 750 mmHg 51%
20:00 +25°C° 0 mm 4 mps 750 mmHg 57%
21:00 +23°C° 0 mm 4 mps 750 mmHg 58%
22:00 +23°C° 0 mm 4 mps 751 mmHg 60%
23:00 +23°C° 0 mm 4 mps 751 mmHg 61%

19 July, Sunday

Time Temperature Precipitation Wind Pressure Humidity
00:00 +22°C° 0 mm 3 mps 751 mmHg 61%
01:00 +22°C° 0 mm 3 mps 751 mmHg 62%
02:00 +22°C° 0 mm 3 mps 751 mmHg 63%
03:00 +21°C° 0 mm 3 mps 750 mmHg 65%
04:00 +21°C° 0 mm 3 mps 750 mmHg 67%
05:00 +20°C° 0 mm 3 mps 750 mmHg 69%
06:00 +22°C° 0 mm 4 mps 750 mmHg 62%
07:00 +25°C° 0 mm 4 mps 750 mmHg 56%
08:00 +27°C° 0 mm 5 mps 750 mmHg 50%
09:00 +27°C° 0 mm 5 mps 750 mmHg 49%
10:00 +28°C° 0 mm 5 mps 750 mmHg 47%
11:00 +29°C° 0 mm 5 mps 750 mmHg 46%
12:00 +29°C° 0 mm 5 mps 750 mmHg 45%
13:00 +30°C° 0 mm 4 mps 749 mmHg 43%
14:00 +30°C° 0 mm 4 mps 749 mmHg 42%
15:00 +30°C° 0 mm 4 mps 749 mmHg 43%
16:00 +30°C° 0 mm 4 mps 748 mmHg 44%
17:00 +30°C° 0 mm 3 mps 748 mmHg 44%
18:00 +28°C° 0 mm 4 mps 748 mmHg 48%
19:00 +27°C° 0 mm 4 mps 748 mmHg 52%
20:00 +26°C° 0 mm 4 mps 748 mmHg 56%
21:00 +26°C° 0 mm 4 mps 748 mmHg 56%
22:00 +25°C° 0 mm 4 mps 748 mmHg 56%
23:00 +25°C° 0 mm 4 mps 748 mmHg 57%

20 July, Monday

Time Temperature Precipitation Wind Pressure Humidity
00:00 +23°C° 0 mm 4 mps 748 mmHg 58%
01:00 +23°C° 0 mm 4 mps 748 mmHg 59%
02:00 +22°C° 0 mm 4 mps 747 mmHg 59%
03:00 +22°C° 0 mm 3 mps 747 mmHg 62%
04:00 +21°C° 0 mm 3 mps 747 mmHg 64%
05:00 +21°C° 0 mm 3 mps 747 mmHg 67%
06:00 +24°C° 0 mm 3 mps 747 mmHg 61%
07:00 +26°C° 0 mm 3 mps 747 mmHg 55%
08:00 +28°C° 0 mm 3 mps 747 mmHg 49%
09:00 +29°C° 0 mm 3 mps 747 mmHg 44%
10:00 +30°C° 0 mm 3 mps 747 mmHg 40%
11:00 +33°C° 0 mm 3 mps 746 mmHg 35%
12:00 +33°C° 0 mm 3 mps 746 mmHg 35%
13:00 +33°C° 0 mm 3 mps 746 mmHg 35%
14:00 +33°C° 0 mm 3 mps 745 mmHg 35%
15:00 +31°C° 0.1 mm 3 mps 745 mmHg 39%
16:00 +30°C° 0.1 mm 3 mps 744 mmHg 44%
17:00 +29°C° 0.1 mm 3 mps 744 mmHg 48%
18:00 +27°C° 1.8 mm 4 mps 744 mmHg 59%
19:00 +23°C° 1.8 mm 4 mps 744 mmHg 70%
20:00 +20°C° 1.8 mm 4 mps 744 mmHg 82%
21:00 +20°C° 0.6 mm 3 mps 744 mmHg 84%
22:00 +19°C° 0.6 mm 2 mps 744 mmHg 86%
23:00 +19°C° 0.6 mm 2 mps 744 mmHg 88%
Show more